CGMPW CYWG-CYAV

Flight info

Callsign CGMPW
Flight time 0h 0m
Altitude 1200
Route VFR FLIGHT FROM WINNIPEG TO ST ANDREWS WITH A FEW OBSTACLES TURN IN BETWEEN /
Aircraft AS50/L-VGD/A

Departure

Time 2026-05-06 17:53
Airport Winnipeg / James Armstrong Richardson International Airport (CYWG)

Arrival

Time 2026-05-06 17:52
Airport Winnipeg / St. Andrews Airport (CYAV)
Time Latitude Longitude Altitude Speed Heading
2026-05-06 17:46 49.90728 -97.22088 777 ft 0 kts
2026-05-06 17:49 49.90723 -97.22101 815 ft 2 kts 356°
2026-05-06 17:49 49.90887 -97.22083 928 ft 57 kts 357°
2026-05-06 17:49 49.91310 -97.21827 1002 ft 97 kts 31°
2026-05-06 17:49 49.91887 -97.21204 1050 ft 106 kts 22°
2026-05-06 17:50 49.92579 -97.20640 1090 ft 109 kts 26°
2026-05-06 17:50 49.93276 -97.20332 1146 ft 115 kts 10°
2026-05-06 17:50 49.93993 -97.19785 1238 ft 122 kts 34°
2026-05-06 17:50 49.94201 -97.18424 1078 ft 131 kts 80°
2026-05-06 17:51 49.94321 -97.17056 1068 ft 131 kts 78°
2026-05-06 17:51 49.94552 -97.15732 1095 ft 123 kts 53°
2026-05-06 17:51 49.95182 -97.14857 1024 ft 123 kts 26°
2026-05-06 17:51 49.95914 -97.14188 1042 ft 120 kts 28°
2026-05-06 17:52 49.96620 -97.13476 1001 ft 123 kts 36°
2026-05-06 17:52 49.96753 -97.12651 970 ft 31 kts 144°
2026-05-06 17:52 49.96721 -97.12606 852 ft 4 kts 132°
2026-05-06 17:52 49.96861 -97.12320 1176 ft 89 kts 36°
2026-05-06 17:53 49.97392 -97.11657 1483 ft 99 kts 35°
2026-05-06 17:53 49.97873 -97.10806 1306 ft 110 kts 53°
2026-05-06 17:53 49.98143 -97.09739 1278 ft 106 kts 75°
2026-05-06 17:53 49.98168 -97.08674 955 ft 63 kts 134°
2026-05-06 17:54 49.98058 -97.08435 883 ft 45 kts 113°
2026-05-06 17:54 49.97931 -97.07671 1039 ft 89 kts 86°
2026-05-06 17:54 49.97951 -97.06658 935 ft 98 kts 104°
2026-05-06 17:54 49.98034 -97.05790 776 ft 75 kts 50°
2026-05-06 17:55 49.98396 -97.05349 769 ft 61 kts 31°
2026-05-06 17:55 49.98783 -97.05082 758 ft 60 kts 18°
2026-05-06 17:55 49.99103 -97.04719 778 ft 56 kts 48°
2026-05-06 17:55 49.99343 -97.04241 812 ft 61 kts 38°
2026-05-06 17:56 49.99734 -97.04046 788 ft 55 kts
2026-05-06 17:56 50.00114 -97.04061 776 ft 55 kts 359°
2026-05-06 17:56 50.00493 -97.04105 821 ft 59 kts 360°
2026-05-06 17:56 50.00951 -97.04128 818 ft 71 kts 358°
2026-05-06 17:57 50.01456 -97.04231 796 ft 79 kts 346°
2026-05-06 17:57 50.01982 -97.04113 788 ft 83 kts 33°
2026-05-06 17:57 50.02425 -97.03599 777 ft 78 kts 32°
2026-05-06 17:57 50.02863 -97.03149 792 ft 75 kts 34°
2026-05-06 17:58 50.03202 -97.02512 791 ft 78 kts 63°
2026-05-06 17:58 50.03281 -97.01716 994 ft 70 kts 58°
2026-05-06 17:58 50.03693 -97.01662 1173 ft 85 kts 299°
2026-05-06 17:58 50.03906 -97.02493 1093 ft 71 kts 297°
2026-05-06 17:59 50.04100 -97.03188 1004 ft 80 kts 294°
2026-05-06 17:59 50.04423 -97.03911 1002 ft 81 kts 319°
2026-05-06 17:59 50.04898 -97.04202 903 ft 70 kts
2026-05-06 17:59 50.05246 -97.04177 848 ft 31 kts
2026-05-06 18:00 50.05385 -97.04145 792 ft 12 kts
2026-05-06 18:00 50.05414 -97.04143 757 ft 0 kts 355°